Time,TemperatureF,DewpointF,PressureIn,WindDirection,WindDirectionDegrees,WindSpeedMPH,WindSpeedGustMPH,Humidity,HourlyPrecipIn,Conditions,Clouds,dailyrainin,SoftwareType,DateUTC
2013-12-04 00:00:00,37.5,36.5,29.87,East,98,0.0,1.0,96,0.00,,---,0.00,VWS V14.01,2013-12-04 06:00:00,
2013-12-04 00:01:00,37.5,36.5,29.87,East,97,0.0,0.0,96,0.00,,---,0.00,VWS V14.01,2013-12-04 06:01:00,
2013-12-04 00:06:00,37.5,36.5,29.87,East,97,0.0,1.0,96,0.00,,---,0.00,VWS V14.01,2013-12-04 06:06:00,
2013-12-04 00:11:00,37.6,36.6,29.87,East,98,0.0,1.0,96,0.00,,---,0.00,VWS V14.01,2013-12-04 06:11:00,
2013-12-04 00:16:00,37.5,36.5,29.87,East,97,0.0,1.0,96,0.00,,---,0.00,VWS V14.01,2013-12-04 06:16:00,
2013-12-04 00:21:00,37.4,36.4,29.87,East,97,0.0,1.0,96,0.00,,---,0.00,VWS V14.01,2013-12-04 06:21:00,
2013-12-04 00:26:00,37.4,36.4,29.87,East,97,0.0,1.0,96,0.00,,---,0.00,VWS V14.01,2013-12-04 06:26:00,
2013-12-04 00:30:00,37.3,36.3,29.87,East,97,0.0,1.0,96,0.00,,---,0.00,VWS V14.01,2013-12-04 06:30:00,
2013-12-04 00:31:00,37.2,36.2,29.86,East,98,0.0,0.0,96,0.00,,---,0.00,VWS V14.01,2013-12-04 06:31:00,
2013-12-04 00:36:00,37.1,36.1,29.86,East,97,0.0,0.0,96,0.00,,---,0.00,VWS V14.01,2013-12-04 06:36:00,
2013-12-04 00:41:00,37.1,36.1,29.86,East,96,0.0,0.0,96,0.00,,---,0.00,VWS V14.01,2013-12-04 06:41:00,
2013-12-04 00:46:00,37.2,36.2,29.86,East,96,0.0,1.0,96,0.00,,---,0.00,VWS V14.01,2013-12-04 06:46:00,
2013-12-04 00:51:00,37.3,36.5,29.86,East,96,0.0,1.0,97,0.00,,---,0.00,VWS V14.01,2013-12-04 06:51:00,
2013-12-04 00:56:00,37.2,36.2,29.86,East,96,0.0,1.0,96,0.00,,---,0.00,VWS V14.01,2013-12-04 06:56:00,
2013-12-04 01:00:00,37.1,36.1,29.86,East,96,0.0,1.0,96,0.00,,---,0.00,VWS V14.01,2013-12-04 07:00:00,
2013-12-04 01:01:00,37.0,36.0,29.87,NNE,26,0.0,1.0,96,0.00,,---,0.00,VWS V14.01,2013-12-04 07:01:00,
2013-12-04 01:06:00,36.8,35.8,29.87,NNE,26,0.0,1.0,96,0.00,,---,0.00,VWS V14.01,2013-12-04 07:06:00,
2013-12-04 01:11:00,36.8,35.8,29.87,NNE,26,0.0,1.0,96,0.00,,---,0.00,VWS V14.01,2013-12-04 07:11:00,
2013-12-04 01:16:00,36.8,36.0,29.86,NNE,26,0.0,1.0,97,0.00,,---,0.00,VWS V14.01,2013-12-04 07:16:00,
2013-12-04 01:21:00,36.6,35.6,29.86,NNE,26,0.0,1.0,96,0.00,,---,0.00,VWS V14.01,2013-12-04 07:21:00,
2013-12-04 01:26:00,36.4,35.4,29.86,NNE,26,0.0,1.0,96,0.00,,---,0.00,VWS V14.01,2013-12-04 07:26:00,
2013-12-04 01:30:00,36.4,35.4,29.86,NNE,26,0.0,1.0,96,0.00,,---,0.00,VWS V14.01,2013-12-04 07:30:00,
2013-12-04 01:31:00,36.3,35.3,29.86,NNE,26,0.0,0.0,96,0.00,,---,0.00,VWS V14.01,2013-12-04 07:31:00,
2013-12-04 01:36:00,36.5,35.7,29.86,NNE,26,0.0,0.0,97,0.00,,---,0.00,VWS V14.01,2013-12-04 07:36:00,
2013-12-04 01:41:00,36.6,35.8,29.85,NNE,26,0.0,0.0,97,0.00,,---,0.00,VWS V14.01,2013-12-04 07:41:00,
2013-12-04 01:46:00,36.7,35.9,29.86,NE,46,0.0,0.0,97,0.00,,---,0.00,VWS V14.01,2013-12-04 07:46:00,
2013-12-04 01:51:00,36.8,36.0,29.86,NE,46,0.0,0.0,97,0.00,,---,0.00,VWS V14.01,2013-12-04 07:51:00,
2013-12-04 01:56:00,36.7,35.9,29.86,NE,47,0.0,0.0,97,0.00,,---,0.00,VWS V14.01,2013-12-04 07:56:00,
2013-12-04 02:00:00,36.7,35.9,29.86,NE,46,0.0,0.0,97,0.00,,---,0.00,VWS V14.01,2013-12-04 08:00:00,
2013-12-04 02:01:00,36.7,35.9,29.87,NE,46,0.0,0.0,97,0.00,,---,0.00,VWS V14.01,2013-12-04 08:01:00,
2013-12-04 02:06:00,36.6,35.8,29.86,NE,47,0.0,0.0,97,0.00,,---,0.00,VWS V14.01,2013-12-04 08:06:00,
2013-12-04 02:11:00,36.8,36.0,29.86,NE,46,0.0,0.0,97,0.00,,---,0.00,VWS V14.01,2013-12-04 08:11:00,
2013-12-04 02:16:00,37.1,36.3,29.87,NE,46,0.0,0.0,97,0.00,,---,0.00,VWS V14.01,2013-12-04 08:16:00,
2013-12-04 02:21:00,36.9,36.1,29.87,NE,47,0.0,0.0,97,0.00,,---,0.00,VWS V14.01,2013-12-04 08:21:00,
2013-12-04 02:26:00,36.7,35.9,29.87,NE,46,0.0,0.0,97,0.00,,---,0.00,VWS V14.01,2013-12-04 08:26:00,
2013-12-04 02:30:00,36.7,35.9,29.87,NE,46,0.0,0.0,97,0.00,,---,0.00,VWS V14.01,2013-12-04 08:30:00,
2013-12-04 02:31:00,36.7,35.9,29.87,NE,47,0.0,0.0,97,0.00,,---,0.00,VWS V14.01,2013-12-04 08:31:00,
2013-12-04 02:36:00,36.6,35.8,29.87,NE,47,0.0,0.0,97,0.00,,---,0.00,VWS V14.01,2013-12-04 08:36:00,
2013-12-04 02:41:00,36.6,35.8,29.87,NE,46,0.0,0.0,97,0.00,,---,0.00,VWS V14.01,2013-12-04 08:41:00,
2013-12-04 02:46:00,36.7,35.9,29.87,NE,46,0.0,0.0,97,0.00,,---,0.00,VWS V14.01,2013-12-04 08:46:00,
2013-12-04 02:51:00,36.8,36.0,29.88,NE,46,0.0,0.0,97,0.00,,---,0.00,VWS V14.01,2013-12-04 08:51:00,
2013-12-04 02:56:00,36.8,36.0,29.88,NE,46,0.0,0.0,97,0.00,,---,0.00,VWS V14.01,2013-12-04 08:56:00,
2013-12-04 03:00:00,36.8,36.0,29.88,NE,46,0.0,0.0,97,0.00,,---,0.00,VWS V14.01,2013-12-04 09:00:00,
2013-12-04 03:01:00,36.8,36.0,29.88,NE,47,0.0,0.0,97,0.00,,---,0.00,VWS V14.01,2013-12-04 09:01:00,
2013-12-04 03:06:00,36.9,36.1,29.88,NE,46,0.0,0.0,97,0.00,,---,0.00,VWS V14.01,2013-12-04 09:06:00,
2013-12-04 03:11:00,37.0,36.2,29.88,NE,47,0.0,0.0,97,0.00,,---,0.00,VWS V14.01,2013-12-04 09:11:00,
2013-12-04 03:16:00,37.1,36.6,29.88,NE,46,0.0,0.0,98,0.00,,---,0.00,VWS V14.01,2013-12-04 09:16:00,
2013-12-04 03:21:00,37.2,36.7,29.89,NE,46,0.0,0.0,98,0.00,,---,0.00,VWS V14.01,2013-12-04 09:21:00,
2013-12-04 03:26:00,37.3,36.8,29.88,NE,47,0.0,0.0,98,0.00,,---,0.00,VWS V14.01,2013-12-04 09:26:00,
2013-12-04 03:30:00,37.3,36.8,29.88,NE,46,0.0,0.0,98,0.00,,---,0.00,VWS V14.01,2013-12-04 09:30:00,
2013-12-04 03:31:00,37.4,36.9,29.88,NE,46,0.0,0.0,98,0.00,,---,0.00,VWS V14.01,2013-12-04 09:31:00,
2013-12-04 03:36:00,37.5,37.0,29.89,NE,46,0.0,0.0,98,0.00,,---,0.00,VWS V14.01,2013-12-04 09:36:00,
2013-12-04 03:41:00,37.6,37.1,29.89,NE,46,0.0,0.0,98,0.00,,---,0.00,VWS V14.01,2013-12-04 09:41:00,
2013-12-04 03:46:00,37.7,37.2,29.88,NE,46,0.0,0.0,98,0.00,,---,0.00,VWS V14.01,2013-12-04 09:46:00,
2013-12-04 03:51:00,37.8,37.3,29.88,NE,46,0.0,0.0,98,0.00,,---,0.00,VWS V14.01,2013-12-04 09:51:00,
2013-12-04 03:56:00,37.9,37.4,29.87,NE,46,0.0,0.0,98,0.00,,---,0.00,VWS V14.01,2013-12-04 09:56:00,
2013-12-04 04:00:00,37.9,37.4,29.87,NE,46,0.0,0.0,98,0.00,,---,0.00,VWS V14.01,2013-12-04 10:00:00,
2013-12-04 04:01:00,38.0,37.5,29.87,NE,46,0.0,0.0,98,0.00,,---,0.00,VWS V14.01,2013-12-04 10:01:00,
2013-12-04 04:06:00,38.1,37.6,29.87,NE,47,0.0,0.0,98,0.00,,---,0.00,VWS V14.01,2013-12-04 10:06:00,
2013-12-04 04:11:00,38.3,37.8,29.87,NE,47,0.0,0.0,98,0.00,,---,0.00,VWS V14.01,2013-12-04 10:11:00,
2013-12-04 04:16:00,38.6,38.1,29.88,NE,46,0.0,0.0,98,0.00,,---,0.00,VWS V14.01,2013-12-04 10:16:00,
2013-12-04 04:21:00,39.0,38.5,29.88,NE,46,0.0,0.0,98,0.00,,---,0.00,VWS V14.01,2013-12-04 10:21:00,
2013-12-04 04:26:00,39.2,38.7,29.88,NE,46,0.0,0.0,98,0.00,,---,0.00,VWS V14.01,2013-12-04 10:26:00,
2013-12-04 04:30:00,39.3,38.8,29.89,NE,46,0.0,0.0,98,0.00,,---,0.00,VWS V14.01,2013-12-04 10:30:00,
2013-12-04 04:31:00,39.3,38.8,29.89,NE,46,0.0,0.0,98,0.00,,---,0.00,VWS V14.01,2013-12-04 10:31:00,
2013-12-04 04:36:00,39.3,38.8,29.88,NE,46,0.0,0.0,98,0.00,,---,0.00,VWS V14.01,2013-12-04 10:36:00,
2013-12-04 04:41:00,39.3,38.8,29.88,NE,47,0.0,0.0,98,0.00,,---,0.00,VWS V14.01,2013-12-04 10:41:00,
2013-12-04 04:46:00,39.3,38.8,29.88,NE,47,0.0,0.0,98,0.00,,---,0.00,VWS V14.01,2013-12-04 10:46:00,
2013-12-04 04:51:00,39.4,38.9,29.88,NE,46,0.0,0.0,98,0.00,,---,0.00,VWS V14.01,2013-12-04 10:51:00,
2013-12-04 04:56:00,39.5,39.0,29.89,NE,46,0.0,0.0,98,0.00,,---,0.00,VWS V14.01,2013-12-04 10:56:00,
2013-12-04 05:00:00,39.5,39.0,29.89,NE,46,0.0,0.0,98,0.00,,---,0.00,VWS V14.01,2013-12-04 11:00:00,
2013-12-04 05:01:00,39.6,39.1,29.89,NE,46,0.0,0.0,98,0.00,,---,0.00,VWS V14.01,2013-12-04 11:01:00,
2013-12-04 05:06:00,39.7,39.2,29.89,NE,46,0.0,0.0,98,0.00,,---,0.00,VWS V14.01,2013-12-04 11:06:00,
2013-12-04 05:11:00,39.7,39.2,29.89,NE,46,0.0,0.0,98,0.00,,---,0.00,VWS V14.01,2013-12-04 11:11:00,
2013-12-04 05:16:00,39.8,39.3,29.89,NE,47,0.0,0.0,98,0.00,,---,0.00,VWS V14.01,2013-12-04 11:16:00,
2013-12-04 05:20:00,39.8,39.3,29.89,NE,47,0.0,0.0,98,0.00,,---,0.00,VWS V14.01,2013-12-04 11:20:00,
2013-12-04 05:25:00,39.8,39.3,29.89,NE,46,0.0,0.0,98,0.00,,---,0.00,VWS V14.01,2013-12-04 11:25:00,
2013-12-04 05:30:00,39.8,39.3,29.89,NE,46,0.0,0.0,98,0.00,,---,0.00,VWS V14.01,2013-12-04 11:30:00,
2013-12-04 05:35:00,39.9,39.4,29.89,NE,47,0.0,0.0,98,0.00,,---,0.00,VWS V14.01,2013-12-04 11:35:00,
2013-12-04 05:40:00,39.9,39.4,29.90,NE,47,0.0,0.0,98,0.00,,---,0.00,VWS V14.01,2013-12-04 11:40:00,
2013-12-04 05:45:00,40.0,39.5,29.90,NE,46,0.0,0.0,98,0.00,,---,0.00,VWS V14.01,2013-12-04 11:45:00,
2013-12-04 05:50:00,40.0,39.5,29.90,NE,46,0.0,0.0,98,0.00,,---,0.00,VWS V14.01,2013-12-04 11:50:00,
2013-12-04 05:55:00,40.1,39.6,29.90,NE,47,0.0,0.0,98,0.00,,---,0.00,VWS V14.01,2013-12-04 11:55:00,
2013-12-04 06:00:00,40.1,39.6,29.90,NE,46,0.0,0.0,98,0.00,,---,0.00,VWS V14.01,2013-12-04 12:00:00,
2013-12-04 06:05:00,40.1,39.6,29.90,NE,46,0.0,0.0,98,0.00,,---,0.00,VWS V14.01,2013-12-04 12:05:00,
2013-12-04 06:10:00,40.2,39.7,29.90,NE,46,0.0,0.0,98,0.00,,---,0.00,VWS V14.01,2013-12-04 12:10:00,
2013-12-04 06:15:00,40.2,39.7,29.90,NE,47,0.0,0.0,98,0.00,,---,0.00,VWS V14.01,2013-12-04 12:15:00,
2013-12-04 06:20:00,40.2,39.4,29.90,NE,46,0.0,0.0,97,0.00,,---,0.00,VWS V14.01,2013-12-04 12:20:00,
2013-12-04 06:25:00,40.2,39.4,29.90,NE,47,0.0,0.0,97,0.00,,---,0.00,VWS V14.01,2013-12-04 12:25:00,
2013-12-04 06:30:00,40.3,39.5,29.90,NE,46,0.0,0.0,97,0.00,,---,0.00,VWS V14.01,2013-12-04 12:30:00,
2013-12-04 06:35:00,40.3,39.5,29.90,NE,46,0.0,0.0,97,0.00,,---,0.00,VWS V14.01,2013-12-04 12:35:00,
2013-12-04 06:40:00,40.4,39.6,29.90,NE,47,0.0,0.0,97,0.00,,---,0.00,VWS V14.01,2013-12-04 12:40:00,
2013-12-04 06:45:00,40.4,39.6,29.90,NE,47,0.0,0.0,97,0.00,,---,0.00,VWS V14.01,2013-12-04 12:45:00,
2013-12-04 06:50:00,40.6,39.8,29.90,NE,47,0.0,0.0,97,0.00,,---,0.00,VWS V14.01,2013-12-04 12:50:00,
2013-12-04 06:55:00,40.6,39.8,29.90,NE,46,0.0,0.0,97,0.00,,---,0.00,VWS V14.01,2013-12-04 12:55:00,
2013-12-04 07:00:00,40.7,39.9,29.90,NE,47,0.0,0.0,97,0.00,,---,0.00,VWS V14.01,2013-12-04 13:00:00,
2013-12-04 07:05:00,40.7,39.9,29.90,NE,46,0.0,0.0,97,0.00,,---,0.00,VWS V14.01,2013-12-04 13:05:00,
2013-12-04 07:10:00,40.8,40.0,29.90,NE,47,0.0,0.0,97,0.00,,---,0.00,VWS V14.01,2013-12-04 13:10:00,
2013-12-04 07:15:00,41.0,40.2,29.90,NE,46,0.0,0.0,97,0.00,,---,0.00,VWS V14.01,2013-12-04 13:15:00,
2013-12-04 07:20:00,41.1,40.3,29.90,NE,47,0.0,0.0,97,0.00,,---,0.00,VWS V14.01,2013-12-04 13:20:00,
2013-12-04 07:25:00,41.2,40.4,29.91,NE,46,0.0,0.0,97,0.00,,---,0.00,VWS V14.01,2013-12-04 13:25:00,
2013-12-04 07:30:00,41.3,40.5,29.91,NE,46,0.0,0.0,97,0.00,,---,0.00,VWS V14.01,2013-12-04 13:30:00,
2013-12-04 07:35:00,41.6,41.1,29.91,NE,46,0.0,0.0,98,0.00,,---,0.00,VWS V14.01,2013-12-04 13:35:00,
2013-12-04 07:40:00,42.0,41.5,29.91,NE,46,0.0,0.0,98,0.00,,---,0.00,VWS V14.01,2013-12-04 13:40:00,
2013-12-04 07:45:00,42.5,42.0,29.91,NE,47,0.0,0.0,98,0.00,,---,0.00,VWS V14.01,2013-12-04 13:45:00,
2013-12-04 07:50:00,42.7,42.2,29.91,NE,46,0.0,0.0,98,0.00,,---,0.00,VWS V14.01,2013-12-04 13:50:00,
2013-12-04 07:55:00,42.9,42.4,29.91,NE,46,0.0,0.0,98,0.00,,---,0.00,VWS V14.01,2013-12-04 13:55:00,
2013-12-04 08:00:00,43.1,42.3,29.91,NE,46,0.0,0.0,97,0.00,,---,0.00,VWS V14.01,2013-12-04 14:00:00,
2013-12-04 08:05:00,43.3,42.5,29.91,NE,47,0.0,0.0,97,0.00,,---,0.00,VWS V14.01,2013-12-04 14:05:00,
2013-12-04 08:10:00,43.6,42.8,29.91,NE,46,0.0,0.0,97,0.00,,---,0.00,VWS V14.01,2013-12-04 14:10:00,
2013-12-04 08:15:00,44.0,43.5,29.91,NE,49,0.0,3.0,98,0.00,,---,0.00,VWS V14.01,2013-12-04 14:15:00,
2013-12-04 08:20:00,44.3,43.5,29.91,ESE,117,0.0,3.0,97,0.00,,---,0.00,VWS V14.01,2013-12-04 14:20:00,
2013-12-04 08:25:00,44.7,43.9,29.91,ESE,114,0.0,3.0,97,0.00,,---,0.00,VWS V14.01,2013-12-04 14:25:00,
2013-12-04 08:30:00,45.1,44.3,29.91,SSE,151,1.0,2.0,97,0.00,,---,0.00,VWS V14.01,2013-12-04 14:30:00,
2013-12-04 08:35:00,45.4,44.6,29.91,SE,134,0.0,4.0,97,0.00,,---,0.00,VWS V14.01,2013-12-04 14:35:00,
2013-12-04 08:40:00,45.8,44.7,29.90,ESE,117,0.0,4.0,96,0.00,,---,0.00,VWS V14.01,2013-12-04 14:40:00,
2013-12-04 08:45:00,46.2,45.1,29.90,ESE,118,1.0,4.0,96,0.00,,---,0.00,VWS V14.01,2013-12-04 14:45:00,
2013-12-04 08:50:00,46.5,45.2,29.91,SE,133,3.0,4.0,95,0.00,,---,0.00,VWS V14.01,2013-12-04 14:50:00,
2013-12-04 08:55:00,46.8,45.2,29.91,SE,126,0.0,4.0,94,0.00,,---,0.00,VWS V14.01,2013-12-04 14:55:00,
2013-12-04 09:00:00,47.1,45.5,29.90,SE,131,2.0,4.0,94,0.00,,---,0.00,VWS V14.01,2013-12-04 15:00:00,
2013-12-04 09:05:00,47.4,45.5,29.90,SE,134,1.0,4.0,93,0.00,,---,0.00,VWS V14.01,2013-12-04 15:05:00,
2013-12-04 09:10:00,47.6,45.4,29.90,ESE,103,0.0,5.0,92,0.00,,---,0.00,VWS V14.01,2013-12-04 15:10:00,
2013-12-04 09:15:00,47.9,45.7,29.90,SSW,210,2.0,5.0,92,0.00,,---,0.00,VWS V14.01,2013-12-04 15:15:00,
2013-12-04 09:20:00,48.2,46.0,29.90,SSE,148,2.0,5.0,92,0.00,,---,0.00,VWS V14.01,2013-12-04 15:20:00,
2013-12-04 09:25:00,48.5,46.3,29.89,SE,130,1.0,5.0,92,0.00,,---,0.00,VWS V14.01,2013-12-04 15:25:00,
2013-12-04 09:30:00,48.9,46.4,29.90,SSW,210,0.0,3.0,91,0.00,,---,0.00,VWS V14.01,2013-12-04 15:30:00,
2013-12-04 09:35:00,49.2,46.4,29.90,ESE,115,4.0,4.0,90,0.00,,---,0.00,VWS V14.01,2013-12-04 15:35:00,
2013-12-04 09:40:00,49.3,46.5,29.89,SSE,155,3.0,4.0,90,0.00,,---,0.00,VWS V14.01,2013-12-04 15:40:00,
2013-12-04 09:45:00,49.5,46.7,29.89,SE,127,1.0,4.0,90,0.00,,---,0.00,VWS V14.01,2013-12-04 15:45:00,
2013-12-04 09:50:00,49.8,47.0,29.89,SE,130,1.0,4.0,90,0.00,,---,0.00,VWS V14.01,2013-12-04 15:50:00,
2013-12-04 09:55:00,50.1,47.0,29.89,SE,134,0.0,4.0,89,0.00,,---,0.00,VWS V14.01,2013-12-04 15:55:00,
2013-12-04 10:00:00,50.4,47.3,29.88,SSE,166,0.0,3.0,89,0.00,,---,0.00,VWS V14.01,2013-12-04 16:00:00,
2013-12-04 10:05:00,50.5,47.1,29.88,East,99,1.0,7.0,88,0.00,,---,0.00,VWS V14.01,2013-12-04 16:05:00,
2013-12-04 10:10:00,50.8,47.7,29.88,South,187,2.0,7.0,89,0.00,,---,0.00,VWS V14.01,2013-12-04 16:10:00,
2013-12-04 10:15:00,51.2,47.8,29.88,SSE,148,1.0,7.0,88,0.00,,---,0.00,VWS V14.01,2013-12-04 16:15:00,
2013-12-04 10:20:00,51.4,48.0,29.87,ESE,120,2.0,7.0,88,0.00,,---,0.00,VWS V14.01,2013-12-04 16:20:00,
2013-12-04 10:25:00,51.7,48.3,29.86,ESE,106,1.0,7.0,88,0.00,,---,0.00,VWS V14.01,2013-12-04 16:25:00,
2013-12-04 10:30:00,52.0,48.6,29.86,SSE,158,0.0,4.0,88,0.00,,---,0.00,VWS V14.01,2013-12-04 16:30:00,
2013-12-04 10:35:00,52.4,48.7,29.86,ESE,104,1.0,4.0,87,0.00,,---,0.00,VWS V14.01,2013-12-04 16:35:00,
2013-12-04 10:40:00,52.5,48.4,29.86,SSE,158,3.0,5.0,86,0.00,,---,0.00,VWS V14.01,2013-12-04 16:40:00,
2013-12-04 10:45:00,52.6,48.8,29.86,SSW,207,1.0,5.0,87,0.00,,---,0.00,VWS V14.01,2013-12-04 16:45:00,
2013-12-04 10:50:00,52.8,49.0,29.85,SSE,161,1.0,5.0,87,0.00,,---,0.00,VWS V14.01,2013-12-04 16:50:00,
2013-12-04 10:55:00,52.9,49.1,29.85,SE,146,2.0,9.0,87,0.00,,---,0.00,VWS V14.01,2013-12-04 16:55:00,
2013-12-04 11:00:00,52.9,49.1,29.85,South,180,3.0,7.0,87,0.00,,---,0.00,VWS V14.01,2013-12-04 17:00:00,
2013-12-04 11:05:00,53.2,49.4,29.85,West,274,1.0,7.0,87,0.00,,---,0.00,VWS V14.01,2013-12-04 17:05:00,
2013-12-04 11:10:00,53.3,49.5,29.85,East,92,2.0,7.0,87,0.00,,---,0.00,VWS V14.01,2013-12-04 17:10:00,
2013-12-04 11:15:00,53.4,49.6,29.84,SE,136,4.0,7.0,87,0.00,,---,0.00,VWS V14.01,2013-12-04 17:15:00,
2013-12-04 11:20:00,53.3,49.5,29.84,SE,137,3.0,7.0,87,0.00,,---,0.00,VWS V14.01,2013-12-04 17:20:00,
2013-12-04 11:25:00,53.4,49.6,29.84,SE,129,1.0,8.0,87,0.00,,---,0.00,VWS V14.01,2013-12-04 17:25:00,
2013-12-04 11:30:00,53.6,49.8,29.83,SSE,150,1.0,3.0,87,0.00,,---,0.00,VWS V14.01,2013-12-04 17:30:00,
2013-12-04 11:35:00,53.8,50.0,29.83,WSW,249,1.0,6.0,87,0.00,,---,0.00,VWS V14.01,2013-12-04 17:35:00,
2013-12-04 11:40:00,53.8,50.0,29.83,SSW,207,2.0,6.0,87,0.00,,---,0.00,VWS V14.01,2013-12-04 17:40:00,
2013-12-04 11:45:00,53.9,50.1,29.83,ESE,118,0.0,10.0,87,0.00,,---,0.00,VWS V14.01,2013-12-04 17:45:00,
2013-12-04 11:50:00,53.9,50.1,29.82,ESE,112,3.0,10.0,87,0.00,,---,0.00,VWS V14.01,2013-12-04 17:50:00,
2013-12-04 11:55:00,54.0,50.2,29.82,East,94,1.0,10.0,87,0.00,,---,0.00,VWS V14.01,2013-12-04 17:55:00,
2013-12-04 12:00:00,54.1,50.3,29.82,East,94,4.0,7.0,87,0.00,,---,0.00,VWS V14.01,2013-12-04 18:00:00,
2013-12-04 12:05:00,54.1,50.3,29.82,SSW,204,1.0,9.0,87,0.00,,---,0.00,VWS V14.01,2013-12-04 18:05:00,
2013-12-04 12:10:00,54.1,50.3,29.81,WSW,248,2.0,9.0,87,0.00,,---,0.00,VWS V14.01,2013-12-04 18:10:00,
2013-12-04 12:15:00,54.3,50.5,29.81,SSE,153,4.0,9.0,87,0.00,,---,0.00,VWS V14.01,2013-12-04 18:15:00,
2013-12-04 12:20:00,54.5,50.7,29.81,ESE,121,7.0,9.0,87,0.00,,---,0.00,VWS V14.01,2013-12-04 18:20:00,
2013-12-04 12:25:00,54.6,51.1,29.80,SSE,152,2.0,9.0,88,0.00,,---,0.00,VWS V14.01,2013-12-04 18:25:00,
2013-12-04 12:30:00,54.8,51.0,29.80,East,89,2.0,6.0,87,0.00,,---,0.00,VWS V14.01,2013-12-04 18:30:00,
2013-12-04 12:35:00,54.8,51.0,29.80,SSE,150,2.0,7.0,87,0.00,,---,0.00,VWS V14.01,2013-12-04 18:35:00,
2013-12-04 12:40:00,55.0,51.2,29.80,SSE,156,4.0,7.0,87,0.00,,---,0.00,VWS V14.01,2013-12-04 18:40:00,
2013-12-04 12:45:00,55.0,51.2,29.79,South,172,2.0,8.0,87,0.00,,---,0.00,VWS V14.01,2013-12-04 18:45:00,
2013-12-04 12:50:00,55.1,51.3,29.79,SSE,161,2.0,8.0,87,0.00,,---,0.00,VWS V14.01,2013-12-04 18:50:00,
2013-12-04 12:55:00,55.3,51.2,29.79,South,186,2.0,8.0,86,0.00,,---,0.00,VWS V14.01,2013-12-04 18:55:00,
2013-12-04 13:00:00,55.6,51.5,29.79,South,186,3.0,5.0,86,0.00,,---,0.00,VWS V14.01,2013-12-04 19:00:00,
2013-12-04 13:05:00,55.8,51.7,29.78,SE,135,3.0,7.0,86,0.00,,---,0.00,VWS V14.01,2013-12-04 19:05:00,
2013-12-04 13:10:00,55.9,51.8,29.77,South,184,4.0,7.0,86,0.00,,---,0.00,VWS V14.01,2013-12-04 19:10:00,
2013-12-04 13:15:00,56.1,52.0,29.77,East,97,2.0,7.0,86,0.00,,---,0.00,VWS V14.01,2013-12-04 19:15:00,
2013-12-04 13:20:00,56.2,51.8,29.77,SW,225,2.0,8.0,85,0.00,,---,0.00,VWS V14.01,2013-12-04 19:20:00,
2013-12-04 13:25:00,56.2,51.8,29.77,SSE,148,5.0,10.0,85,0.00,,---,0.00,VWS V14.01,2013-12-04 19:25:00,
2013-12-04 13:30:00,56.2,51.8,29.77,ESE,108,3.0,12.0,85,0.00,,---,0.00,VWS V14.01,2013-12-04 19:30:00,
2013-12-04 13:35:00,56.2,52.1,29.77,ESE,114,3.0,12.0,86,0.00,,---,0.00,VWS V14.01,2013-12-04 19:35:00,
2013-12-04 13:40:00,56.3,52.2,29.77,SSE,159,0.0,12.0,86,0.00,,---,0.00,VWS V14.01,2013-12-04 19:40:00,
2013-12-04 13:45:00,56.3,52.2,29.77,SSE,164,2.0,12.0,86,0.00,,---,0.00,VWS V14.01,2013-12-04 19:45:00,
2013-12-04 13:50:00,56.4,52.3,29.77,ESE,106,3.0,12.0,86,0.00,,---,0.00,VWS V14.01,2013-12-04 19:50:00,
2013-12-04 13:55:00,56.3,51.9,29.78,SE,134,1.0,12.0,85,0.00,,---,0.00,VWS V14.01,2013-12-04 19:55:00,
2013-12-04 14:00:00,56.3,51.9,29.77,SE,142,4.0,9.0,85,0.00,,---,0.00,VWS V14.01,2013-12-04 20:00:00,
2013-12-04 14:05:00,56.2,51.8,29.77,ESE,116,2.0,9.0,85,0.00,,---,0.00,VWS V14.01,2013-12-04 20:05:00,
2013-12-04 14:10:00,56.2,51.8,29.78,SE,127,0.0,9.0,85,0.00,,---,0.00,VWS V14.01,2013-12-04 20:10:00,
2013-12-04 14:15:00,56.2,51.8,29.77,SE,139,5.0,9.0,85,0.00,,---,0.00,VWS V14.01,2013-12-04 20:15:00,
2013-12-04 14:20:00,56.3,51.9,29.77,NNE,26,1.0,9.0,85,0.00,,---,0.00,VWS V14.01,2013-12-04 20:20:00,
2013-12-04 14:25:00,56.3,51.9,29.77,SE,134,3.0,9.0,85,0.00,,---,0.00,VWS V14.01,2013-12-04 20:25:00,
2013-12-04 14:30:00,56.3,51.9,29.76,East,90,8.0,8.0,85,0.00,,---,0.00,VWS V14.01,2013-12-04 20:30:00,
2013-12-04 14:35:00,56.4,52.0,29.76,SSE,155,2.0,10.0,85,0.00,,---,0.00,VWS V14.01,2013-12-04 20:35:00,
2013-12-04 14:40:00,56.4,52.0,29.76,SE,132,0.0,10.0,85,0.00,,---,0.00,VWS V14.01,2013-12-04 20:40:00,
2013-12-04 14:45:00,56.3,51.9,29.76,SE,141,1.0,10.0,85,0.00,,---,0.00,VWS V14.01,2013-12-04 20:45:00,
2013-12-04 14:50:00,56.3,51.9,29.75,SE,140,1.0,10.0,85,0.00,,---,0.00,VWS V14.01,2013-12-04 20:50:00,
2013-12-04 14:55:00,56.3,51.9,29.75,East,89,2.0,10.0,85,0.00,,---,0.00,VWS V14.01,2013-12-04 20:55:00,
2013-12-04 15:00:00,56.3,51.9,29.75,East,100,3.0,6.0,85,0.00,,---,0.00,VWS V14.01,2013-12-04 21:00:00,
2013-12-04 15:05:00,56.3,51.9,29.75,ESE,120,4.0,6.0,85,0.00,,---,0.00,VWS V14.01,2013-12-04 21:05:00,
2013-12-04 15:10:00,56.2,51.8,29.74,ESE,120,4.0,6.0,85,0.00,,---,0.00,VWS V14.01,2013-12-04 21:10:00,
2013-12-04 15:15:00,56.2,51.8,29.74,SE,139,5.0,7.0,85,0.00,,---,0.00,VWS V14.01,2013-12-04 21:15:00,
2013-12-04 15:20:00,56.3,51.9,29.74,SSE,165,2.0,7.0,85,0.00,,---,0.00,VWS V14.01,2013-12-04 21:20:00,
2013-12-04 15:25:00,56.2,51.8,29.74,SE,146,0.0,7.0,85,0.00,,---,0.00,VWS V14.01,2013-12-04 21:25:00,
2013-12-04 15:30:00,56.2,52.1,29.74,SE,125,0.0,3.0,86,0.00,,---,0.00,VWS V14.01,2013-12-04 21:30:00,
2013-12-04 15:35:00,56.2,52.1,29.74,SE,128,2.0,3.0,86,0.00,,---,0.00,VWS V14.01,2013-12-04 21:35:00,
2013-12-04 15:40:00,56.2,52.1,29.74,SSE,153,2.0,7.0,86,0.00,,---,0.00,VWS V14.01,2013-12-04 21:40:00,
2013-12-04 15:45:00,56.2,52.1,29.73,SE,132,8.0,8.0,86,0.00,,---,0.00,VWS V14.01,2013-12-04 21:45:00,
2013-12-04 16:00:00,56.6,52.5,29.73,SSE,162,4.0,10.0,86,0.00,,---,0.00,VWS V14.01,2013-12-04 22:00:00,
2013-12-04 16:04:00,56.5,52.0,29.73,SSE,150,1.0,1.0,85,0.00,,---,0.00,VWS V14.01,2013-12-04 22:04:00,
2013-12-04 16:09:00,56.5,52.0,29.73,ESE,117,1.0,5.0,85,0.00,,---,0.00,VWS V14.01,2013-12-04 22:09:00,
2013-12-04 16:14:00,56.6,52.2,29.73,ESE,117,7.0,11.0,85,0.00,,---,0.00,VWS V14.01,2013-12-04 22:14:00,
2013-12-04 16:19:00,56.6,52.2,29.73,ESE,117,4.0,11.0,85,0.00,,---,0.00,VWS V14.01,2013-12-04 22:19:00,
2013-12-04 16:24:00,56.7,52.2,29.73,SE,143,2.0,11.0,85,0.00,,---,0.00,VWS V14.01,2013-12-04 22:24:00,
2013-12-04 16:29:00,56.7,52.2,29.73,ESE,120,3.0,7.0,85,0.00,,---,0.00,VWS V14.01,2013-12-04 22:29:00,
2013-12-04 16:30:00,56.7,52.2,29.73,ESE,105,3.0,11.0,85,0.00,,---,0.00,VWS V14.01,2013-12-04 22:30:00,
2013-12-04 16:34:00,56.7,52.2,29.73,SSE,159,6.0,10.0,85,0.00,,---,0.00,VWS V14.01,2013-12-04 22:34:00,
2013-12-04 16:39:00,56.8,52.3,29.72,SE,145,3.0,10.0,85,0.00,,---,0.00,VWS V14.01,2013-12-04 22:39:00,
2013-12-04 16:44:00,56.8,52.3,29.72,SW,217,4.0,10.0,85,0.00,,---,0.00,VWS V14.01,2013-12-04 22:44:00,
2013-12-04 16:49:00,56.7,52.2,29.72,South,172,2.0,10.0,85,0.00,,---,0.00,VWS V14.01,2013-12-04 22:49:00,
2013-12-04 16:54:00,56.7,52.6,29.73,SSE,158,4.0,10.0,86,0.00,,---,0.00,VWS V14.01,2013-12-04 22:54:00,
2013-12-04 16:59:00,56.6,52.5,29.73,SE,136,1.0,6.0,86,0.00,,---,0.00,VWS V14.01,2013-12-04 22:59:00,
2013-12-04 17:00:00,56.6,52.5,29.73,SSE,162,4.0,10.0,86,0.00,,---,0.00,VWS V14.01,2013-12-04 23:00:00,
2013-12-04 17:04:00,56.5,52.4,29.72,WSW,255,3.0,11.0,86,0.00,,---,0.00,VWS V14.01,2013-12-04 23:04:00,
2013-12-04 17:09:00,56.5,52.4,29.72,SSE,162,3.0,11.0,86,0.00,,---,0.00,VWS V14.01,2013-12-04 23:09:00,
2013-12-04 17:14:00,56.4,52.3,29.72,South,174,1.0,11.0,86,0.00,,---,0.00,VWS V14.01,2013-12-04 23:14:00,
2013-12-04 17:19:00,56.4,52.3,29.73,SSE,157,3.0,11.0,86,0.00,,---,0.00,VWS V14.01,2013-12-04 23:19:00,
2013-12-04 17:24:00,56.3,52.2,29.72,SE,143,1.0,11.0,86,0.00,,---,0.00,VWS V14.01,2013-12-04 23:24:00,
2013-12-04 17:29:00,56.3,52.5,29.73,SSE,150,3.0,5.0,87,0.00,,---,0.00,VWS V14.01,2013-12-04 23:29:00,
2013-12-04 17:30:00,56.3,52.5,29.72,SE,143,1.0,11.0,87,0.00,,---,0.00,VWS V14.01,2013-12-04 23:30:00,
2013-12-04 17:34:00,56.3,52.2,29.72,SSW,198,2.0,8.0,86,0.00,,---,0.00,VWS V14.01,2013-12-04 23:34:00,
2013-12-04 17:39:00,56.3,52.2,29.73,ESE,110,4.0,8.0,86,0.00,,---,0.00,VWS V14.01,2013-12-04 23:39:00,
2013-12-04 17:44:00,56.4,52.3,29.72,SW,231,3.0,8.0,86,0.00,,---,0.00,VWS V14.01,2013-12-04 23:44:00,
2013-12-04 17:49:00,56.4,52.3,29.72,SSE,166,1.0,8.0,86,0.00,,---,0.00,VWS V14.01,2013-12-04 23:49:00,
2013-12-04 17:54:00,56.4,52.3,29.72,SSE,152,0.0,8.0,86,0.00,,---,0.00,VWS V14.01,2013-12-04 23:54:00,
2013-12-04 17:59:00,56.2,52.1,29.72,ESE,104,3.0,4.0,86,0.00,,---,0.00,VWS V14.01,2013-12-04 23:59:00,
2013-12-04 18:00:00,56.3,52.2,29.72,South,172,1.0,8.0,86,0.00,,---,0.00,VWS V14.01,2013-12-05 00:00:00,
2013-12-04 18:04:00,56.2,52.1,29.72,SE,142,1.0,8.0,86,0.00,,---,0.00,VWS V14.01,2013-12-05 00:04:00,
2013-12-04 18:09:00,56.1,52.0,29.72,SE,139,2.0,8.0,86,0.00,,---,0.00,VWS V14.01,2013-12-05 00:09:00,
2013-12-04 18:14:00,56.1,52.0,29.72,SE,134,5.0,8.0,86,0.00,,---,0.00,VWS V14.01,2013-12-05 00:14:00,
2013-12-04 18:19:00,56.1,52.0,29.72,ENE,77,4.0,15.0,86,0.00,,---,0.00,VWS V14.01,2013-12-05 00:19:00,
2013-12-04 18:24:00,56.1,52.0,29.72,SSW,207,3.0,15.0,86,0.00,,---,0.00,VWS V14.01,2013-12-05 00:24:00,
2013-12-04 18:29:00,56.1,52.0,29.72,SE,127,1.0,5.0,86,0.00,,---,0.00,VWS V14.01,2013-12-05 00:29:00,
2013-12-04 18:30:00,56.1,52.0,29.72,SW,215,0.0,15.0,86,0.00,,---,0.00,VWS V14.01,2013-12-05 00:30:00,
2013-12-04 18:34:00,56.0,52.2,29.72,SSW,197,2.0,8.0,87,0.00,,---,0.00,VWS V14.01,2013-12-05 00:34:00,
2013-12-04 18:39:00,56.1,52.0,29.72,SE,139,2.0,8.0,86,0.00,,---,0.00,VWS V14.01,2013-12-05 00:39:00,
2013-12-04 18:44:00,56.1,52.0,29.72,ESE,120,5.0,8.0,86,0.00,,---,0.00,VWS V14.01,2013-12-05 00:44:00,
2013-12-04 18:49:00,56.1,52.0,29.71,SSW,197,5.0,8.0,86,0.00,,---,0.00,VWS V14.01,2013-12-05 00:49:00,
2013-12-04 18:54:00,56.2,52.1,29.71,ESE,112,3.0,8.0,86,0.00,,---,0.00,VWS V14.01,2013-12-05 00:54:00,
2013-12-04 18:59:00,56.3,52.2,29.71,SE,132,4.0,5.0,86,0.00,,---,0.00,VWS V14.01,2013-12-05 00:59:00,
2013-12-04 19:00:00,56.3,52.2,29.71,SSW,194,2.0,8.0,86,0.00,,---,0.00,VWS V14.01,2013-12-05 01:00:00,
2013-12-04 19:04:00,56.4,52.3,29.70,SSE,151,2.0,6.0,86,0.00,,---,0.00,VWS V14.01,2013-12-05 01:04:00,
2013-12-04 19:09:00,56.4,52.3,29.70,SE,146,1.0,6.0,86,0.00,,---,0.00,VWS V14.01,2013-12-05 01:09:00,
2013-12-04 19:14:00,56.4,52.3,29.70,South,178,3.0,6.0,86,0.00,,---,0.00,VWS V14.01,2013-12-05 01:14:00,
2013-12-04 19:19:00,56.4,52.3,29.70,SSW,207,0.0,6.0,86,0.00,,---,0.00,VWS V14.01,2013-12-05 01:19:00,
2013-12-04 19:24:00,56.4,52.3,29.70,SE,139,3.0,8.0,86,0.00,,---,0.00,VWS V14.01,2013-12-05 01:24:00,
2013-12-04 19:29:00,56.5,52.4,29.69,ESE,103,3.0,5.0,86,0.00,,---,0.00,VWS V14.01,2013-12-05 01:29:00,
2013-12-04 19:30:00,56.5,52.4,29.70,SSE,150,3.0,8.0,86,0.00,,---,0.00,VWS V14.01,2013-12-05 01:30:00,
2013-12-04 19:34:00,56.4,52.6,29.69,SSE,148,1.0,6.0,87,0.00,,---,0.00,VWS V14.01,2013-12-05 01:34:00,
2013-12-04 19:39:00,56.4,52.6,29.70,SSW,197,6.0,9.0,87,0.00,,---,0.00,VWS V14.01,2013-12-05 01:39:00,
2013-12-04 19:44:00,56.5,52.4,29.70,SSW,192,4.0,9.0,86,0.00,,---,0.00,VWS V14.01,2013-12-05 01:44:00,
2013-12-04 19:49:00,56.6,52.8,29.70,South,186,1.0,9.0,87,0.00,,---,0.00,VWS V14.01,2013-12-05 01:49:00,
2013-12-04 19:54:00,56.7,52.9,29.69,South,188,0.0,9.0,87,0.00,,---,0.00,VWS V14.01,2013-12-05 01:54:00,
2013-12-04 19:59:00,56.9,53.1,29.70,SSE,148,1.0,5.0,87,0.00,,---,0.00,VWS V14.01,2013-12-05 01:59:00,
2013-12-04 20:00:00,56.8,53.0,29.69,SE,138,3.0,9.0,87,0.00,,---,0.00,VWS V14.01,2013-12-05 02:00:00,
2013-12-04 20:04:00,57.1,53.3,29.70,SE,138,0.0,5.0,87,0.00,,---,0.00,VWS V14.01,2013-12-05 02:04:00,
2013-12-04 20:09:00,57.2,53.4,29.70,South,169,2.0,7.0,87,0.00,,---,0.00,VWS V14.01,2013-12-05 02:09:00,
2013-12-04 20:14:00,57.5,53.7,29.70,SW,217,3.0,8.0,87,0.00,,---,0.00,VWS V14.01,2013-12-05 02:14:00,
2013-12-04 20:19:00,57.8,53.7,29.69,SSE,162,2.0,8.0,86,0.00,,---,0.00,VWS V14.01,2013-12-05 02:19:00,
2013-12-04 20:24:00,57.9,53.7,29.69,South,177,0.0,8.0,86,0.00,,---,0.00,VWS V14.01,2013-12-05 02:24:00,
2013-12-04 20:29:00,58.1,53.9,29.69,ESE,117,4.0,4.0,86,0.00,,---,0.00,VWS V14.01,2013-12-05 02:29:00,
2013-12-04 20:30:00,58.1,53.9,29.69,South,188,2.0,8.0,86,0.00,,---,0.00,VWS V14.01,2013-12-05 02:30:00,
2013-12-04 20:34:00,58.3,53.8,29.69,SSW,210,1.0,8.0,85,0.00,,---,0.00,VWS V14.01,2013-12-05 02:34:00,
2013-12-04 20:39:00,58.5,54.0,29.69,SW,221,1.0,8.0,85,0.00,,---,0.00,VWS V14.01,2013-12-05 02:39:00,
2013-12-04 20:44:00,58.6,54.1,29.68,SSE,167,1.0,8.0,85,0.00,,---,0.00,VWS V14.01,2013-12-05 02:44:00,
2013-12-04 20:48:00,58.5,54.0,29.68,SE,130,4.0,8.0,85,0.00,,---,0.00,VWS V14.01,2013-12-05 02:48:00,
2013-12-04 20:53:00,58.5,54.0,29.68,SSW,210,2.0,8.0,85,0.00,,---,0.00,VWS V14.01,2013-12-05 02:53:00,
2013-12-04 20:58:00,58.4,53.9,29.68,ESE,115,2.0,5.0,85,0.00,,---,0.00,VWS V14.01,2013-12-05 02:58:00,
2013-12-04 21:00:00,58.4,53.9,29.68,SE,139,2.0,8.0,85,0.00,,---,0.00,VWS V14.01,2013-12-05 03:00:00,
2013-12-04 21:03:00,58.4,53.9,29.68,WSW,255,1.0,6.0,85,0.00,,---,0.00,VWS V14.01,2013-12-05 03:03:00,
2013-12-04 21:08:00,58.4,53.9,29.68,SE,134,2.0,9.0,85,0.00,,---,0.00,VWS V14.01,2013-12-05 03:08:00,
2013-12-04 21:13:00,58.3,53.8,29.68,SW,221,4.0,9.0,85,0.00,,---,0.00,VWS V14.01,2013-12-05 03:13:00,
2013-12-04 21:18:00,58.2,53.7,29.68,SE,135,2.0,9.0,85,0.00,,---,0.00,VWS V14.01,2013-12-05 03:18:00,
2013-12-04 21:23:00,58.3,53.8,29.68,SE,127,1.0,10.0,85,0.00,,---,0.00,VWS V14.01,2013-12-05 03:23:00,
2013-12-04 21:28:00,58.3,53.8,29.68,SSW,197,2.0,3.0,85,0.00,,---,0.00,VWS V14.01,2013-12-05 03:28:00,
2013-12-04 21:30:00,58.4,53.9,29.68,SE,130,2.0,10.0,85,0.00,,---,0.00,VWS V14.01,2013-12-05 03:30:00,
2013-12-04 21:33:00,58.3,53.8,29.66,SW,226,2.0,7.0,85,0.00,,---,0.00,VWS V14.01,2013-12-05 03:33:00,
2013-12-04 21:38:00,58.3,53.8,29.67,SE,140,2.0,7.0,85,0.00,,---,0.00,VWS V14.01,2013-12-05 03:38:00,
2013-12-04 21:43:00,58.3,54.1,29.67,SSE,153,3.0,8.0,86,0.00,,---,0.00,VWS V14.01,2013-12-05 03:43:00,
2013-12-04 21:48:00,58.3,54.1,29.67,SSE,156,4.0,8.0,86,0.00,,---,0.00,VWS V14.01,2013-12-05 03:48:00,
2013-12-04 21:53:00,58.4,54.2,29.67,South,181,5.0,8.0,86,0.00,,---,0.00,VWS V14.01,2013-12-05 03:53:00,
2013-12-04 21:58:00,58.4,54.2,29.67,East,87,1.0,5.0,86,0.00,,---,0.00,VWS V14.01,2013-12-05 03:58:00,
2013-12-04 22:00:00,58.4,54.2,29.67,West,259,4.0,8.0,86,0.00,,---,0.00,VWS V14.01,2013-12-05 04:00:00,
2013-12-04 22:03:00,58.4,53.9,29.66,SSW,194,2.0,6.0,85,0.00,,---,0.00,VWS V14.01,2013-12-05 04:03:00,
2013-12-04 22:08:00,58.4,53.9,29.67,SSE,158,5.0,9.0,85,0.00,,---,0.00,VWS V14.01,2013-12-05 04:08:00,
2013-12-04 22:13:00,58.4,54.2,29.66,NW,321,1.0,9.0,86,0.00,,---,0.00,VWS V14.01,2013-12-05 04:13:00,
2013-12-04 22:18:00,58.4,54.2,29.66,SE,131,2.0,9.0,86,0.00,,---,0.00,VWS V14.01,2013-12-05 04:18:00,
2013-12-04 22:23:00,58.4,54.2,29.66,SSW,201,3.0,9.0,86,0.00,,---,0.00,VWS V14.01,2013-12-05 04:23:00,
2013-12-04 22:28:00,58.4,54.2,29.67,SE,139,1.0,6.0,86,0.00,,---,0.00,VWS V14.01,2013-12-05 04:28:00,
2013-12-04 22:30:00,58.4,54.2,29.67,SSW,194,0.0,9.0,86,0.00,,---,0.00,VWS V14.01,2013-12-05 04:30:00,
2013-12-04 22:33:00,58.3,54.1,29.66,SSE,159,2.0,6.0,86,0.00,,---,0.00,VWS V14.01,2013-12-05 04:33:00,
2013-12-04 22:38:00,58.3,54.1,29.66,ESE,115,1.0,9.0,86,0.00,,---,0.00,VWS V14.01,2013-12-05 04:38:00,
2013-12-04 22:43:00,58.2,54.0,29.67,ENE,63,2.0,9.0,86,0.00,,---,0.00,VWS V14.01,2013-12-05 04:43:00,
2013-12-04 22:48:00,58.4,54.2,29.67,WSW,248,4.0,9.0,86,0.00,,---,0.00,VWS V14.01,2013-12-05 04:48:00,
2013-12-04 22:53:00,58.5,54.3,29.67,SW,227,5.0,9.0,86,0.00,,---,0.00,VWS V14.01,2013-12-05 04:53:00,
2013-12-04 22:58:00,58.5,54.3,29.68,WSW,242,3.0,5.0,86,0.00,,---,0.00,VWS V14.01,2013-12-05 04:58:00,
2013-12-04 23:00:00,58.5,54.3,29.68,SSW,207,4.0,9.0,86,0.00,,---,0.00,VWS V14.01,2013-12-05 05:00:00,
2013-12-04 23:01:00,58.5,54.3,29.68,SW,222,2.0,5.0,86,0.00,,---,0.00,VWS V14.01,2013-12-05 05:01:00,
2013-12-04 23:03:00,58.4,54.2,29.68,West,269,0.0,8.0,86,0.00,,---,0.00,VWS V14.01,2013-12-05 05:03:00,
2013-12-04 23:08:00,58.4,54.5,29.67,SSE,150,2.0,9.0,87,0.00,,---,0.00,VWS V14.01,2013-12-05 05:08:00,
2013-12-04 23:13:00,58.5,54.3,29.66,SSW,205,3.0,11.0,86,0.00,,---,0.00,VWS V14.01,2013-12-05 05:13:00,
2013-12-04 23:18:00,58.4,54.5,29.65,SSW,207,5.0,11.0,87,0.00,,---,0.00,VWS V14.01,2013-12-05 05:18:00,
2013-12-04 23:23:00,58.4,54.5,29.65,SSW,207,5.0,11.0,87,0.00,,---,0.00,VWS V14.01,2013-12-05 05:23:00,
2013-12-04 23:28:00,58.3,54.5,29.66,SW,231,2.0,4.0,87,0.00,,---,0.00,VWS V14.01,2013-12-05 05:28:00,
2013-12-04 23:30:00,58.4,54.5,29.66,SW,225,3.0,11.0,87,0.00,,---,0.00,VWS V14.01,2013-12-05 05:30:00,
2013-12-04 23:33:00,58.3,54.5,29.66,South,184,3.0,8.0,87,0.00,,---,0.00,VWS V14.01,2013-12-05 05:33:00,
2013-12-04 23:38:00,58.3,54.5,29.66,SSW,207,3.0,8.0,87,0.00,,---,0.00,VWS V14.01,2013-12-05 05:38:00,
2013-12-04 23:43:00,58.2,54.7,29.67,SE,133,3.0,9.0,88,0.00,,---,0.00,VWS V14.01,2013-12-05 05:43:00,
2013-12-04 23:48:00,58.1,54.6,29.66,SSW,204,2.0,11.0,88,0.00,,---,0.00,VWS V14.01,2013-12-05 05:48:00,
2013-12-04 23:53:00,58.1,54.6,29.66,South,187,1.0,11.0,88,0.00,,---,0.00,VWS V14.01,2013-12-05 05:53:00,
2013-12-04 23:58:00,58.1,54.6,29.66,SW,219,2.0,9.0,88,0.00,,---,0.00,VWS V14.01,2013-12-05 05:58:00,